Track ONEWEB-0054 now! 10-day predictions ONEWEB-0054 is classified as:
1 45158U 20008AD 22224.79173413 .00000468 00000-0 13042-2 0 9990 2 45158 87.8851 315.4808 0002023 96.2328 263.9029 13.10371165124105